星链-31382 (STARLINK-31382 )

导读 | 豆包AI

STARLINK-31382是美国SpaceX公司星链计划的一颗卫星,于2024年3月10日发射升空。该卫星运行在近地轨道,轨道倾角约43.00度,近地点高度482千米,远地点高度484千米,每日绕地球约15.28圈。作为星链星座的组成部分,它主要为全球用户提供高速互联网接入服务,依托低轨星座布局降低通信延迟,拓展全球网络覆盖范围,支撑星链系统的服务能力升级。

Basic Information
目录编号:
59184
目录名称:
STARLINK-31382
国际标识:
2024-045G
轨道中心:
EARTH
卫星名称:
星链-31382
卫星全名:
星链-31382 (STARLINK-31382 )
卫星状态:
在轨 (已飞行782 天)
发射日期:
2024-03-10 UTC
国别 :
美国 (US)
星等 :
--
Orbit Information
数据来源 国际轨道数据
星历时间: 2026-04-30T19:07:33+0800
13小时前
查看轨道信息
半长轴: 6861.233km
偏心率: 0.0001041
轨道倾角: 42.999°
近地点辐角 266.399°
升交点赤经 159.797°
平近点角 93.675°
近地点: 482.381km
远地点: 483.811km
周期: 94.268分钟
每日圈数: 15.275646
Detailed Information
固有亮度:
5
最大亮度:
0.3
卫星平台:
Starlink v2.0 mini
覆盖范围:
全球
运营商:
太空探索技术公司
运营商所在国:
美国
制造商(研发单位):
太空探索技术公司
制造商所在国:
美国
使用方式:
暂无
Satellite Introduction
星链(Starlink)计划是由太空探索技术公司(SpaceX)提出的一个巨型低轨卫星互联网星座项目,计划在2019年至2024年间在太空搭建由约1.2万颗卫星组成的“星链”网络,其中1584颗将部署在地球上空550千米处的近地轨道,并从2020年开始工作。该卫星仍在工作。
2D Orbit Map
3D Orbit Map
Orbit Altitude Analysis Chart
Orbit Inclination Analysis Chart
Orbit Comprehensive Analysis Chart
View Comprehensive Chart